Weather History for Port Hardy, BC

Change the Weather History Date:

Sunday, March 17, 2013

  Actual Average Record
Temperature  
Mean Temperature 38 °F -  
Max Temperature 43 °F 49 °F 51 °F (2003)
Min Temperature 34 °F 36 °F 26 °F (2002)
Degree Days  
Heating Degree Days 26    
Moisture  
Dew Point 35 °F    
Average Humidity 85    
Maximum Humidity 93    
Minimum Humidity 61    
Precipitation  
Precipitation 0.08 in 0.17 in - ()
Sea Level Pressure  
Sea Level Pressure 30.09 in    
Wind  
Wind Speed 7 mph ()    
Max Wind Speed 14 mph    
Max Gust Speed -    
Visibility 16.3 miles    
Events Rain    
Averages and records for this station are not official NWS values.
T = Trace of Precipitation, MM = Missing Value Source: Averaged Metar Reports

Daily Weather History Graph

Daily Weather History Graph

Search for Another Location

Airport:

Trip Planner

Search our weather history database for the weather conditions in past years. The results will help you decide how hot, cold, wet, or windy it might be!

Date:

Astronomy

Mar. 17, 2013 Rise Set
Actual Time 7:37 AM PDT 7:38 PM PDT
Civil Twilight 7:05 AM PDT 8:11 PM PDT
Nautical Twilight 6:26 AM PDT 8:49 PM PDT
Astronomical Twilight 5:47 AM PDT 9:29 PM PDT
Moon 10:20 AM PDT (3/17) 1:26 AM PDT (3/17)
Length of Visible Light 13h 05m
Length of Day
12h 00m
Waxing Crescent, 32% of the Moon is Illuminated
Mar 17
Waxing Crescent
Mar 19
First Quarter
Mar 27
Full
Apr 2
Last Quarter
Apr 10
New

Hourly Weather History & Observations

Time (PDT) Temp. Windchill Dew Point Humidity Pressure Visibility Wind Dir Wind Speed Gust Speed Precip Events Conditions
12:00 AM 37.4 °F 32.1 °F 33.8 °F 87% 30.04 in 15.0 mi SW 6.9 mph - N/A   Partly Cloudy
1:00 AM 35.6 °F 29.2 °F 33.8 °F 93% 30.06 in 15.0 mi WSW 8.1 mph - N/A   Mostly Cloudy
2:00 AM 35.6 °F 30.7 °F 33.8 °F 93% 30.06 in 15.0 mi South 5.8 mph - N/A   Mostly Cloudy
3:00 AM 35.6 °F 30.7 °F 33.8 °F 93% 30.07 in 15.0 mi SSW 5.8 mph - N/A   Mostly Cloudy
4:00 AM 35.6 °F 32.8 °F 33.8 °F 93% 30.08 in 20.0 mi SSW 3.5 mph - N/A   Scattered Clouds
5:00 AM 36 °F - 34 °F 87% 30.08 in 15 mi SW 8.1 mph - -   Mostly Cloudy
5:00 AM 35.6 °F 29.2 °F 33.8 °F 93% 30.08 in 15.0 mi SW 8.1 mph - N/A   Mostly Cloudy
6:00 AM 35.6 °F 30.7 °F 33.8 °F 93% 30.08 in 15.0 mi SSW 5.8 mph - N/A   Scattered Clouds
7:00 AM 35.6 °F - 33.8 °F 93% 30.10 in 15.0 mi Calm Calm - N/A   Mostly Cloudy
8:00 AM 37.4 °F 32.1 °F 33.8 °F 87% 30.12 in 15.0 mi SW 6.9 mph - N/A   Mostly Cloudy
9:00 AM 37.4 °F 29.8 °F 33.8 °F 87% 30.12 in 20.0 mi WSW 11.5 mph - N/A   Mostly Cloudy
10:00 AM 39.2 °F 33.0 °F 33.8 °F 81% 30.13 in 20.0 mi WSW 9.2 mph - N/A   Mostly Cloudy
11:00 AM 41 °F - 34 °F 68% 30.13 in 19 mi WSW 10.4 mph - -   Scattered Clouds
11:00 AM 41.0 °F 34.7 °F 33.8 °F 76% 30.13 in 20.0 mi WSW 10.4 mph - N/A   Mostly Cloudy
11:53 AM - - - N/A% - 20.0 mi WNW 6.9 mph - N/A Rain Light Rain Showers
12:00 PM 41.0 °F 35.2 °F 33.8 °F 76% 30.15 in 20.0 mi WNW 9.2 mph - N/A Rain Light Rain Showers
1:00 PM 42.8 °F 38.0 °F 37.4 °F 81% 30.14 in 20.0 mi WSW 8.1 mph - N/A Rain Light Rain Showers
2:00 PM 39.2 °F 31.2 °F 35.6 °F 87% 30.15 in 20.0 mi SSW 13.8 mph - N/A Rain Light Rain Showers
3:00 PM 41.0 °F 35.8 °F 35.6 °F 81% 30.14 in 20.0 mi SW 8.1 mph - N/A Rain Light Rain Showers
3:24 PM - - - N/A% - 20.0 mi SW 10.4 mph - N/A   Overcast
4:00 PM 41.0 °F 38.0 °F 35.6 °F 81% 30.13 in 20.0 mi WSW 4.6 mph - N/A   Overcast
5:00 PM 42 °F - 33 °F 61% 30.11 in 19 mi West 11.5 mph - -   Overcast
5:00 PM 42.8 °F 36.6 °F 33.8 °F 70% 30.11 in 20.0 mi West 11.5 mph - N/A   Overcast
6:00 PM 42.8 °F 39.3 °F 35.6 °F 76% 30.08 in 20.0 mi South 5.8 mph - N/A   Overcast
6:25 PM - - - N/A% - 15.0 mi South 6.9 mph - N/A Rain Light Rain Showers
7:00 PM 41.0 °F 36.4 °F 33.8 °F 76% 30.05 in 10.0 mi SSE 6.9 mph - N/A Rain Light Rain Showers
8:00 PM 39.2 °F 35.0 °F 37.4 °F 93% 30.03 in 6.0 mi SSE 5.8 mph - N/A Rain Light Rain Showers
9:00 PM 39.2 °F 35.9 °F 37.4 °F 93% 30.03 in 8.0 mi SE 4.6 mph - N/A Rain Light Rain Showers
10:00 PM 39.2 °F 37.0 °F 35.6 °F 87% 30.01 in 10.0 mi SSW 3.5 mph - N/A Rain Light Rain Showers
11:00 PM 38 °F - 36 °F 91% 30.01 in 12 mi SW 5.8 mph - - Rain Light Rain Showers
11:00 PM 37.4 °F 32.8 °F 35.6 °F 93% 30.01 in 12.0 mi SW 5.8 mph - N/A Rain Light Rain Showers